Stündliche Wetter Lacanau-Océan

Heute, 8 Mai, Samstag

Zeit Temperatur Niederschläge Wind Luftdruck Luftfeuchtigkeit
00:00 +13°C° 0 mm 2 m/S 761 mmHg 94%
01:00 +13°C° 0 mm 2 m/S 761 mmHg 94%
02:00 +13°C° 0 mm 1 m/S 761 mmHg 95%
03:00 +13°C° 0 mm 1 m/S 760 mmHg 95%
04:00 +13°C° 0 mm 1 m/S 760 mmHg 93%
05:00 +14°C° 0 mm 2 m/S 760 mmHg 92%
06:00 +14°C° 0 mm 2 m/S 760 mmHg 89%
07:00 +17°C° 0 mm 3 m/S 759 mmHg 79%
08:00 +19°C° 0 mm 3 m/S 759 mmHg 68%
09:00 +22°C° 0 mm 3 m/S 759 mmHg 58%
10:00 +24°C° 0 mm 3 m/S 758 mmHg 53%
11:00 +26°C° 0 mm 3 m/S 757 mmHg 48%
12:00 +28°C° 0 mm 3 m/S 756 mmHg 43%
13:00 +28°C° 0 mm 3 m/S 756 mmHg 41%
14:00 +29°C° 0 mm 3 m/S 755 mmHg 40%
15:00 +29°C° 0 mm 3 m/S 754 mmHg 38%
16:00 +28°C° 0 mm 3 m/S 754 mmHg 41%
17:00 +27°C° 0 mm 2 m/S 753 mmHg 45%
18:00 +26°C° 0 mm 2 m/S 752 mmHg 49%
19:00 +25°C° 0.2 mm 3 m/S 752 mmHg 55%
20:00 +22°C° 0.2 mm 4 m/S 752 mmHg 62%
21:00 +21°C° 0.2 mm 5 m/S 752 mmHg 69%
22:00 +20°C° 0 mm 6 m/S 751 mmHg 70%
23:00 +20°C° 0 mm 6 m/S 751 mmHg 72%

Morgen, 9 Mai, Sonntag

Zeit Temperatur Niederschläge Wind Luftdruck Luftfeuchtigkeit
00:00 +18°C° 0 mm 7 m/S 750 mmHg 73%
01:00 +19°C° 0 mm 6 m/S 750 mmHg 73%
02:00 +17°C° 0 mm 6 m/S 750 mmHg 74%
03:00 +17°C° 0 mm 6 m/S 749 mmHg 74%
04:00 +17°C° 0 mm 6 m/S 749 mmHg 73%
05:00 +17°C° 0 mm 6 m/S 749 mmHg 73%
06:00 +17°C° 0 mm 7 m/S 749 mmHg 72%
07:00 +18°C° 0 mm 7 m/S 749 mmHg 64%
08:00 +21°C° 0 mm 7 m/S 749 mmHg 57%
09:00 +22°C° 0 mm 7 m/S 750 mmHg 49%
10:00 +23°C° 0 mm 7 m/S 750 mmHg 49%
11:00 +23°C° 0 mm 7 m/S 750 mmHg 49%
12:00 +24°C° 0 mm 8 m/S 750 mmHg 49%
13:00 +22°C° 0.5 mm 8 m/S 749 mmHg 58%
14:00 +21°C° 0.5 mm 7 m/S 749 mmHg 66%
15:00 +18°C° 0.5 mm 7 m/S 749 mmHg 75%
16:00 +17°C° 2.9 mm 7 m/S 749 mmHg 81%
17:00 +15°C° 2.9 mm 6 m/S 750 mmHg 87%
18:00 +14°C° 2.9 mm 5 m/S 751 mmHg 93%
19:00 +13°C° 0.1 mm 4 m/S 751 mmHg 93%
20:00 +13°C° 0.1 mm 4 m/S 752 mmHg 93%
21:00 +13°C° 0.1 mm 3 m/S 752 mmHg 92%
22:00 +12°C° 0.2 mm 4 m/S 752 mmHg 91%
23:00 +12°C° 0.2 mm 5 m/S 753 mmHg 91%

übermorgen, 10 Mai, Montag

Zeit Temperatur Niederschläge Wind Luftdruck Luftfeuchtigkeit
00:00 +11°C° 0.2 mm 6 m/S 753 mmHg 90%
01:00 +11°C° 0.1 mm 6 m/S 753 mmHg 89%
02:00 +11°C° 0.1 mm 6 m/S 754 mmHg 88%
03:00 +11°C° 0.1 mm 6 m/S 754 mmHg 88%
04:00 +11°C° 0.1 mm 6 m/S 754 mmHg 87%
05:00 +12°C° 0.1 mm 5 m/S 755 mmHg 87%
06:00 +12°C° 0.1 mm 5 m/S 755 mmHg 87%
07:00 +13°C° 0.2 mm 5 m/S 755 mmHg 77%
08:00 +15°C° 0.2 mm 4 m/S 755 mmHg 67%
09:00 +17°C° 0.2 mm 4 m/S 756 mmHg 57%
10:00 +18°C° 0.1 mm 3 m/S 756 mmHg 53%
11:00 +19°C° 0.1 mm 3 m/S 755 mmHg 49%
12:00 +19°C° 0.1 mm 3 m/S 755 mmHg 45%
13:00 +19°C° 0 mm 3 m/S 755 mmHg 44%
14:00 +19°C° 0 mm 3 m/S 755 mmHg 44%
15:00 +19°C° 0 mm 3 m/S 755 mmHg 43%
16:00 +18°C° 0 mm 3 m/S 755 mmHg 49%
17:00 +17°C° 0 mm 3 m/S 754 mmHg 54%
18:00 +15°C° 0 mm 4 m/S 754 mmHg 59%
19:00 +14°C° 0 mm 3 m/S 755 mmHg 65%
20:00 +13°C° 0 mm 3 m/S 755 mmHg 71%
21:00 +13°C° 0 mm 2 m/S 756 mmHg 77%
22:00 +12°C° 0.1 mm 4 m/S 756 mmHg 78%
23:00 +10°C° 0.1 mm 5 m/S 756 mmHg 80%

11 Mai, Dienstag

Zeit Temperatur Niederschläge Wind Luftdruck Luftfeuchtigkeit
00:00 +10°C° 0.1 mm 6 m/S 756 mmHg 81%
01:00 +10°C° 1.1 mm 6 m/S 756 mmHg 85%
02:00 +9°C° 1.1 mm 6 m/S 756 mmHg 89%
03:00 +9°C° 1.1 mm 6 m/S 756 mmHg 93%
04:00 +9°C° 0.6 mm 6 m/S 757 mmHg 90%
05:00 +9°C° 0.6 mm 6 m/S 757 mmHg 87%
06:00 +10°C° 0.6 mm 7 m/S 757 mmHg 84%
07:00 +11°C° 0.2 mm 7 m/S 758 mmHg 77%
08:00 +12°C° 0.2 mm 8 m/S 758 mmHg 69%
09:00 +13°C° 0.2 mm 8 m/S 759 mmHg 62%
10:00 +13°C° 0.1 mm 8 m/S 759 mmHg 60%
11:00 +15°C° 0.1 mm 8 m/S 760 mmHg 58%
12:00 +15°C° 0.1 mm 9 m/S 760 mmHg 56%
13:00 +15°C° 0.2 mm 9 m/S 761 mmHg 57%
14:00 +15°C° 0.2 mm 9 m/S 761 mmHg 58%
15:00 +15°C° 0.2 mm 8 m/S 762 mmHg 59%
16:00 +13°C° 0.1 mm 8 m/S 762 mmHg 62%
17:00 +14°C° 0.1 mm 7 m/S 762 mmHg 64%
18:00 +13°C° 0.1 mm 6 m/S 762 mmHg 67%
19:00 +12°C° 0 mm 5 m/S 762 mmHg 71%
20:00 +10°C° 0 mm 5 m/S 763 mmHg 75%
21:00 +9°C° 0 mm 5 m/S 763 mmHg 78%
22:00 +9°C° 0 mm 5 m/S 763 mmHg 79%
23:00 +9°C° 0 mm 5 m/S 762 mmHg 79%

12 Mai, Mittwoch

Zeit Temperatur Niederschläge Wind Luftdruck Luftfeuchtigkeit
00:00 +9°C° 0 mm 5 m/S 762 mmHg 79%
01:00 +9°C° 0 mm 5 m/S 762 mmHg 79%
02:00 +9°C° 0 mm 5 m/S 762 mmHg 79%
03:00 +10°C° 0 mm 4 m/S 761 mmHg 79%
04:00 +10°C° 0 mm 4 m/S 761 mmHg 78%
05:00 +11°C° 0 mm 3 m/S 761 mmHg 78%
06:00 +11°C° 0 mm 3 m/S 760 mmHg 77%
07:00 +13°C° 0 mm 3 m/S 760 mmHg 69%
08:00 +14°C° 0 mm 4 m/S 760 mmHg 61%
09:00 +17°C° 0 mm 4 m/S 760 mmHg 53%
10:00 +17°C° 0 mm 5 m/S 759 mmHg 50%
11:00 +17°C° 0 mm 5 m/S 759 mmHg 46%
12:00 +19°C° 0 mm 6 m/S 759 mmHg 43%
13:00 +19°C° 0 mm 5 m/S 759 mmHg 44%
14:00 +19°C° 0 mm 5 m/S 758 mmHg 45%
15:00 +19°C° 0 mm 4 m/S 758 mmHg 45%
16:00 +17°C° 0 mm 6 m/S 759 mmHg 54%
17:00 +16°C° 0 mm 8 m/S 759 mmHg 62%
18:00 +13°C° 0 mm 10 m/S 759 mmHg 71%
19:00 +13°C° 0.1 mm 9 m/S 760 mmHg 72%
20:00 +12°C° 0.1 mm 9 m/S 760 mmHg 73%
21:00 +11°C° 0.1 mm 8 m/S 761 mmHg 75%
22:00 +11°C° 0.1 mm 8 m/S 761 mmHg 74%
23:00 +10°C° 0.1 mm 7 m/S 761 mmHg 73%

13 Mai, Donnerstag

Zeit Temperatur Niederschläge Wind Luftdruck Luftfeuchtigkeit
00:00 +10°C° 0.1 mm 7 m/S 761 mmHg 72%
01:00 +10°C° 0 mm 6 m/S 760 mmHg 74%
02:00 +9°C° 0 mm 6 m/S 760 mmHg 75%
03:00 +9°C° 0 mm 5 m/S 760 mmHg 77%
04:00 +11°C° 0 mm 4 m/S 759 mmHg 77%
05:00 +11°C° 0 mm 3 m/S 759 mmHg 76%
06:00 +11°C° 0 mm 3 m/S 759 mmHg 76%
07:00 +13°C° 0 mm 3 m/S 758 mmHg 68%
08:00 +14°C° 0 mm 3 m/S 758 mmHg 59%
09:00 +17°C° 0 mm 3 m/S 758 mmHg 50%
10:00 +16°C° 0.4 mm 2 m/S 757 mmHg 58%
11:00 +15°C° 0.4 mm 2 m/S 757 mmHg 67%
12:00 +14°C° 0.4 mm 1 m/S 757 mmHg 75%
13:00 +13°C° 2.1 mm 2 m/S 756 mmHg 82%
14:00 +11°C° 2.1 mm 3 m/S 756 mmHg 88%
15:00 +10°C° 2.1 mm 4 m/S 756 mmHg 95%
16:00 +9°C° 1.8 mm 5 m/S 756 mmHg 95%
17:00 +9°C° 1.8 mm 5 m/S 757 mmHg 95%
18:00 +9°C° 1.8 mm 6 m/S 758 mmHg 95%
19:00 +9°C° 0.1 mm 6 m/S 758 mmHg 92%
20:00 +9°C° 0.1 mm 6 m/S 758 mmHg 90%
21:00 +8°C° 0.1 mm 6 m/S 759 mmHg 88%
22:00 +8°C° 0.2 mm 6 m/S 759 mmHg 89%
23:00 +8°C° 0.2 mm 6 m/S 758 mmHg 91%
Mehr zeigen

Wir brauchen deine Erlaubnis

Meteoprog und unser Service Anbieter werden persönliche Daten aufbewahren, so wie Cookies, Geräte Bezeichnung oder ähnliche Technologien von deinem Gerät und Prozess, so wie Persönliche Daten Inhalte und Werbungen, genauso wie social Media und den Verkehr zu analysieren.

  • Aufbewahrung und/oder Zugang zu deiner Geräte Informationen.

    Cookies, Geräte Bezeichnung oder andere Informationen, können aufbewahrt oder Zugang zu deinem Gerät erhalten, für den Grund, der oben angegeben wird.

  • Personalisierte Werbung und Inhalte, Messungen, Einblick in das Publikum und Produkt Entwicklung.

    Werbungen und Inhalte können personalisiert werden, basierend auf ein Profil. Mehr Daten können besser personalisierte Werbungen und Inhalte hinzufügen. Werbung und Inhalte können gezeigt und gemessen werden. Einblicke über das Publikum, welche die Werbung gesehen haben und den Inhalt, können abgeleitet werden. So wie Daten können genutzt werden, um es zu verbessern oder die Benutzer Erfahrung zu verbessern das System und die Software.

Wenn du “Ich stimme zu” klickst, erlaubst du uns, die Cookies zu benutzen die Geräte Bezeichnung, den Web oder ähnliche Technologien zu benutzen. Deine Settings, können in deinem Gerät bei deinem Browser geändert werden.

Für den bestimmten Zweck, berechtigten Interessen beruhen darauf, mehr als auf den Inhalt. Du kannst mehr darüber in unseren Privaten und Cookie Politik lesen.